Location: Unspecified
(35.6961°N, 0.0000°E)
Time: 21:20:57
(UTC+00:00)

Explorer 11/Cluster Stage 4 - Pass Details

Date: 25 May 2019
Orbit: 467 x 1260 km, 28.8° (Epoch: 17 June)

Event Time Altitude Azimuth Distance (km) Brightness Sun altitude
Rises 23:27:22 0° 200° (SSW) 3,954 - -32.8°
Reaches altitude 10° 23:34:00 10° 159° (SSE) 2,750 - -33.0°
Maximum altitude 23:34:26 10° 155° (SSE) 2,726 - -33.0°
Drops below altitude 10° 23:34:53 10° 151° (SSE) 2,712 - -33.0°
Sets 23:40:40 0° 107° (ESE) 3,377 - -33.1°
